User: anonymous   Login
Location: Bonneuil
(46.1010°N, 2.9693°E)
Time: 08:31:09
(UTC+00:00)
Language:

ATLAS CENTAUR R/B - Orbit

View from above orbital plane
View from above orbital plane
View from above satellite
View from above satellite

Ground track
Ground track

The orbit data is extracted from the following two-line orbital elements,

1 38770U 12048N   21164.94592954 0.00001200  00000-0  80718-4 0    05
2 38770  64.6490 100.3779 0143332  13.4446 346.5554 14.98390333    06
Epoch (UTC): 13 June 2021 22:42:08
Eccentricity: 0.0143332
inclination: 64.6490°
perigee height: 472 km
apogee height: 671 km
right ascension of ascending node: 100.3779°
argument of perigee: 13.4446°
revolutions per day: 14.98390333
mean anomaly at epoch: 346.5554°
orbit number at epoch: 0

The dashed part of the orbit path shows where the satellite is in the earth's shadow,  

DLR